Temperature
1 2 2 2 3 3 3 3 3 3 3 4 4 3 4 5 5 5 5 5 5 5 5 5 5 5 5 6 6 6 6 6 6 6 5 5 5 5 5 5 4 4 4 4
1 2 2 2 3 3 3 3 3 3 3 4 3 4 3 4 4 4 4 4 4 4 4 4 5 5 5 5 5 5 5 5 5 5 5 5 4 4 4 4 4 3 3 3
0 1 2 1 2 2 2 3 3 3 3 3 3 3 3 3 3 3 3 4 4 4 4 4 4 4 4 4 4 4 4 4 4 4 4 4 4 3 3 3 3 3 3 2
-1 0 0 2 2 2 2 3 3 3 3 3 3 3 3 3 3 3 3 3 3 3 3 3 3 3 3 3 3 4 3 3 3 3 3 3 3 3 3 2 2 2 2 2
-1 -1 0 1 2 2 2 2 2 2 2 2 2 2 2 3 3 3 3 3 3 3 3 3 3 3 3 3 3 3 3 3 2 2 2 2 2 2 2 2 2 1 1 1
-2 -1 0 1 2 2 2 1 1 1 1 1 2 1 1 2 2 2 2 2 2 2 2 2 2 2 2 2 2 2 2 2 2 2 2 1 1 1 1 1 1 1 0 0
-2 -2 -0 0 1 2 1 1 1 1 1 1 1 1 1 1 2 2 2 2 2 2 2 1 1 1 1 1 1 1 1 1 1 1 1 1 1 1 1 0 0 0 0 -0
-2 -2 -1 0 0 0 0 1 1 1 1 1 1 1 1 1 1 1 1 1 1 1 1 1 1 0 0 0 0 0 0 0 0 0 0 0 0 0 -0 -0 -0 -0 -1 -1
-2 -1 -1 -0 0 0 1 0 0 1 1 0 0 0 0 0 0 0 0 0 0 0 -0 -0 -0 -0 -0 -0 -1 -1 -0 -0 -1 -0 -1 -1 -1 -1 -1 -1 -1 -1 -2 -2
-2 -1 -1 -1 -0 0 0 0 0 0 0 -0 -0 -0 -0 -0 -0 -1 -1 -1 -1 -1 -1 -1 -1 -1 -1 -1 -1 -1 -1 -1 -1 -1 -2 -2 -2 -2 -2 -2 -2 -2 -3 -3
-2 -2 -2 -1 -1 -1 -1 -0 -0 -0 -1 -1 -1 -1 -1 -1 -1 -2 -2 -2 -2 -2 -2 -2 -2 -2 -2 -2 -2 -2 -2 -2 -2 -2 -2 -2 -2 -3 -3 -3 -3 -3 -3 -3
-3 -2 -3 -2 -2 -1 -1 -1 -1 -1 -1 -2 -2 -2 -2 -2 -2 -3 -3 -3 -3 -3 -3 -3 -3 -3 -2 -2 -3 -3 -3 -3 -3 -3 -3 -3 -3 -3 -3 -3 -4 -4 -4 -4
-2 -2 -2 -2 -2 -2 -2 -2 -2 -2 -2 -3 -3 -3 -3 -3 -3 -3 -4 -4 -4 -4 -4 -4 -3 -3 -3 -3 -3 -3 -3 -4 -4 -4 -4 -4 -4 -4 -4 -4 -4 -4 -4 -4
-3 -3 -3 -3 -3 -3 -3 -3 -3 -3 -3 -3 -4 -4 -4 -4 -4 -4 -4 -4 -4 -4 -4 -4 -4 -4 -4 -4 -4 -4 -4 -4 -4 -5 -5 -5 -5 -5 -5 -4 -4 -4 -4 -4
-4 -3 -4 -4 -4 -4 -4 -4 -4 -4 -4 -4 -4 -4 -5 -5 -5 -5 -5 -5 -5 -5 -5 -5 -5 -5 -5 -5 -5 -5 -5 -5 -5 -5 -5 -5 -5 -5 -5 -5 -5 -5 -5 -5
-4 -4 -4 -4 -4 -4 -5 -5 -5 -5 -5 -5 -5 -5 -5 -5 -6 -5 -5 -5 -5 -5 -5 -6 -5 -5 -6 -6 -6 -6 -6 -6 -6 -6 -6 -6 -6 -6 -6 -6 -6 -6 -6 -5
-5 -5 -5 -5 -5 -5 -5 -5 -6 -6 -6 -6 -6 -6 -6 -6 -6 -6 -6 -6 -6 -6 -6 -6 -6 -6 -6 -6 -6 -6 -6 -6 -6 -6 -6 -6 -6 -6 -6 -6 -7 -6 -6 -6
-6 -5 -5 -6 -6 -6 -6 -6 -6 -6 -6 -7 -7 -7 -7 -7 -7 -7 -7 -7 -7 -7 -7 -7 -7 -7 -7 -7 -7 -7 -7 -7 -7 -7 -7 -7 -7 -7 -7 -7 -7 -7 -7 -7
-6 -6 -6 -6 -6 -6 -6 -7 -7 -7 -7 -7 -7 -7 -7 -7 -7 -7 -8 -8 -8 -7 -7 -7 -7 -8 -7 -7 -7 -7 -7 -7 -7 -7 -7 -7 -7 -7 -7 -7 -7 -7 -7 -7
-6 -6 -6 -7 -7 -7 -7 -7 -7 -7 -7 -7 -8 -8 -8 -8 -8 -8 -8 -8 -8 -8 -8 -8 -8 -8 -8 -8 -8 -8 -8 -8 -8 -8 -8 -8 -8 -8 -8 -8 -8 -8 -8 -8
-7 -7 -7 -7 -7 -7 -8 -8 -8 -8 -8 -8 -8 -8 -8 -8 -8 -8 -8 -8 -8 -8 -8 -8 -8 -8 -8 -8 -8 -8 -8 -8 -8 -8 -8 -8 -8 -8 -8 -8 -8 -8 -8 -8
-7 -7 -8 -8 -8 -8 -8 -8 -8 -8 -8 -8 -8 -8 -9 -9 -9 -9 -9 -9 -9 -9 -9 -9 -9 -9 -9 -9 -9 -9 -9 -9 -9 -9 -9 -8 -8 -8 -8 -8 -8 -9 -9 -9
-8 -8 -8 -8 -8 -8 -8 -8 -8 -8 -8 -8 -9 -9 -9 -9 -9 -9 -9 -9 -9 -9 -9 -9 -9 -9 -9 -9 -9 -9 -9 -9 -9 -9 -9 -9 -9 -9 -9 -9 -9 -9 -9 -9
-8 -8 -9 -9 -9 -9 -8 -8 -9 -9 -9 -9 -9 -9 -9 -9 -9 -9 -9 -9 -9 -9 -9 -9 -9 -9 -9 -9 -9 -9 -9 -9 -9 -9 -9 -9 -9 -9 -9 -9 -9 -9 -9 -9
-9 -9 -9 -9 -9 -9 -9 -9 -9 -9 -9 -9 -9 -9 -9 -9 -9 -9 -9 -9 -9 -9 -9 -9 -9 -9 -9 -9 -9 -9 -9 -9 -9 -9 -9 -9 -9 -9 -9 -9 -9 -9 -9 -9
-9 -9 -9 -9 -9 -9 -9 -9 -9 -9 -9 -9 -9 -9 -9 -9 -9 -9 -9 -9 -9 -9 -9 -9 -9 -9 -9 -9 -9 -9 -9 -9 -9 -9 -9 -9 -9 -9 -9 -9 -9 -9 -9 -9
-10 -10 -10 -10 -10 -10 -10 -10 -10 -10 -10 -10 -9 -9 -10 -10 -10 -10 -10 -10 -10 -10 -10 -10 -10 -10 -10 -9 -9 -9 -9 -9 -9 -9 -9 -9 -9 -9 -9 -9 -9 -9 -9 -9
Wind_Speed
2 2 1 1 3 4 6 6 5 5 5 5 3 2 0 2 3 4 4 4 4 4 3 3 4 3 2 2 2 2 3 3 2 2 2 2 2 2 1 1 1 1 0 1
2 2 0 2 3 4 6 5 5 4 6 4 1 1 2 2 3 3 2 2 3 3 3 3 3 2 2 2 1 2 3 2 2 2 2 2 2 2 1 1 1 0 0 1
1 3 2 4 5 5 3 4 5 7 6 1 2 2 2 1 2 2 2 2 2 2 1 1 1 1 1 1 2 3 2 2 2 2 2 1 1 1 1 1 1 1 2 2
0 2 3 5 2 2 3 2 3 3 2 2 3 2 0 0 2 2 2 2 1 1 1 1 1 2 2 3 3 3 3 2 2 2 1 1 1 0 1 1 1 1 2 2
1 1 4 5 2 1 3 2 1 3 1 2 3 4 3 3 1 2 2 2 1 1 1 1 2 2 3 3 3 3 3 2 2 1 1 1 1 1 2 1 2 2 2 3
2 2 3 4 5 3 2 2 3 1 2 2 3 1 2 2 1 2 2 2 2 2 3 3 2 2 3 3 3 3 2 2 2 2 2 1 2 2 2 1 2 2 3 3
3 3 5 5 6 1 3 4 2 1 0 1 2 3 2 0 1 2 2 2 3 3 3 2 2 3 3 3 2 2 2 3 3 3 2 2 2 1 1 2 2 2 4 4
3 3 5 4 2 2 2 1 1 1 1 2 1 2 2 2 2 3 3 3 3 3 3 3 3 3 2 2 3 2 2 3 3 3 3 3 2 2 2 2 2 3 3 4
5 5 2 0 1 0 1 1 1 1 2 3 2 2 2 2 2 2 3 3 3 3 3 3 3 3 2 2 3 2 2 3 3 3 3 3 2 2 2 2 2 3 3 4
1 2 1 1 2 2 2 1 1 1 2 2 2 1 1 1 1 2 2 2 2 3 2 2 3 3 2 2 2 2 2 3 3 2 3 3 2 2 2 2 2 3 3 4
2 2 1 1 1 1 2 3 3 3 2 2 2 1 1 1 1 1 1 1 2 2 2 2 3 3 3 2 2 1 2 2 3 3 3 3 2 2 2 2 3 3 3 3
4 3 3 2 1 1 2 1 1 2 2 2 2 1 1 1 1 1 1 1 2 2 2 2 2 3 3 3 1 1 2 2 2 2 3 2 2 3 4 4 6 6 6 6
3 2 1 1 1 1 1 1 1 1 1 1 1 1 1 1 1 1 2 2 1 1 2 2 2 3 4 4 2 2 2 2 2 3 3 3 2 2 4 5 6 6 7 7
1 1 0 1 1 2 1 1 2 2 2 1 1 1 2 1 1 2 1 1 1 1 2 2 3 3 4 4 3 2 2 3 3 2 3 3 3 3 3 3 4 5 6 8
3 1 2 1 1 2 2 2 2 2 2 2 2 1 1 1 1 1 1 1 2 2 2 2 3 4 4 4 3 3 3 2 2 2 3 3 3 3 3 3 3 4 4 6
2 2 1 1 1 1 2 2 1 1 1 1 2 2 1 1 1 1 1 1 1 2 3 3 4 4 4 4 3 3 3 5 4 3 3 3 3 3 3 3 3 4 4 5
1 1 1 1 1 1 1 1 1 1 1 1 1 1 2 1 2 2 2 2 2 2 3 4 5 5 4 3 3 3 3 4 5 4 3 3 3 3 3 3 3 4 4 6
2 3 3 3 2 1 1 1 0 0 1 1 1 1 1 1 1 2 3 3 3 3 4 4 4 4 4 3 3 3 3 3 3 3 3 3 3 3 3 3 4 4 5 6
1 0 0 1 1 1 1 1 1 1 1 1 1 1 2 2 2 2 2 2 3 4 5 4 6 4 4 5 5 3 3 3 3 3 3 4 4 3 3 3 4 4 4 5
1 1 1 1 1 0 0 1 1 1 2 1 1 2 2 3 3 3 3 3 4 4 5 6 5 4 4 5 5 3 3 3 3 3 3 3 3 3 3 4 4 4 4 4
1 1 0 0 1 1 1 1 1 2 2 1 2 2 3 4 3 3 3 4 4 4 4 6 4 4 4 4 5 3 3 3 3 3 3 3 3 4 4 4 4 4 4 5
1 0 1 1 1 1 2 1 2 2 2 2 2 3 3 3 4 3 4 4 5 6 5 4 4 6 6 6 3 3 3 3 3 3 3 3 3 4 4 4 4 5 5 5
1 1 1 1 1 2 2 2 2 2 2 3 3 3 4 4 3 3 4 3 4 6 5 4 6 8 8 4 2 2 3 3 3 3 3 4 4 4 4 5 5 5 5 5
1 1 1 1 1 1 2 3 3 2 3 3 4 4 4 3 3 3 4 6 8 8 5 7 9 8 7 2 2 2 3 3 3 4 4 4 4 4 4 4 5 5 5 6
1 1 1 1 1 2 3 3 3 3 3 3 4 4 3 3 3 4 4 5 7 7 5 6 8 8 4 3 3 3 3 4 4 4 4 4 4 4 4 5 5 5 5 5
1 1 2 2 2 2 2 2 2 2 3 3 4 4 3 3 3 3 4 4 5 6 5 4 4 5 3 3 3 4 4 4 4 4 4 4 5 5 5 5 6 5 5 5
1 1 1 2 2 2 2 2 2 3 3 3 4 4 3 3 3 3 4 4 4 4 4 3 3 3 3 3 4 4 4 4 4 4 4 4 4 4 5 5 5 5 5 5
Wind_Direction
264 266 165 208 228 207 204 199 197 218 218 246 247 208 146 74 89 85 79 82 83 82 70 66 63 54 53 49 53 79 98 104 119 117 104 98 93 89 87 95 128 158 154 322
307 292 267 296 276 228 223 213 210 227 257 258 240 100 85 78 100 100 94 98 86 75 71 64 58 49 45 41 38 76 94 96 92 94 92 86 78 70 65 44 13 16 311 305
277 308 0 288 252 218 207 206 195 224 239 227 117 143 176 173 140 141 131 122 113 104 99 86 60 46 40 32 49 67 76 79 76 83 82 73 78 75 58 335 333 322 306 301
125 60 237 261 289 189 191 238 195 178 196 180 166 166 17 26 156 155 133 121 113 92 58 31 37 33 37 45 59 62 57 59 61 67 66 54 58 22 316 297 292 291 297 292
137 202 275 302 319 201 178 270 273 186 163 128 121 76 18 3 92 138 138 137 145 133 112 68 43 40 56 52 55 55 41 27 25 34 23 11 346 313 305 312 320 314 311 311
141 174 237 276 304 300 118 283 337 146 165 163 120 141 265 317 48 81 76 75 86 80 68 73 42 53 68 54 50 32 7 357 358 11 10 333 304 303 314 315 309 317 318 316
180 215 264 286 307 26 142 249 321 50 134 135 163 199 214 102 84 86 78 67 86 86 77 66 53 67 66 47 16 338 340 354 2 1 351 319 316 326 330 329 333 324 315 315
168 197 255 315 40 133 216 290 51 58 69 100 98 67 57 58 57 59 56 54 70 80 59 45 53 69 58 15 339 343 352 356 355 352 351 352 337 331 340 342 333 322 321 320
190 212 250 116 146 195 115 75 39 70 69 94 86 65 42 32 40 55 64 67 66 76 55 32 30 49 39 341 341 351 357 350 345 350 351 343 331 327 339 335 323 315 316 314
213 265 271 12 20 13 26 36 30 63 85 91 84 46 41 48 59 56 53 70 74 75 62 22 11 14 1 332 340 352 343 335 332 333 334 333 326 324 322 315 310 310 310 308
227 259 352 3 359 14 43 47 48 43 45 73 93 54 44 61 59 51 37 35 70 74 53 10 1 354 341 332 342 342 331 329 327 324 315 316 318 307 301 284 285 297 295 296
229 236 207 238 289 36 73 53 61 61 31 26 72 77 58 70 56 56 47 37 49 44 26 360 354 347 342 342 344 335 325 325 323 318 313 313 313 326 335 324 323 319 318 315
238 263 216 258 335 4 56 34 46 68 74 26 27 73 90 78 49 54 50 43 40 23 2 350 350 343 339 339 344 337 311 310 312 315 310 308 311 314 320 333 337 337 336 333
331 60 7 317 332 3 35 51 54 54 56 67 59 64 75 59 58 63 38 15 20 14 354 346 344 334 331 334 335 328 314 314 315 299 298 297 296 295 295 303 315 322 328 332
346 332 207 219 17 18 34 60 63 44 38 34 46 55 57 53 31 2 352 2 16 9 347 338 332 324 325 326 326 317 312 304 300 294 294 296 296 295 295 297 299 307 317 325
325 17 77 96 47 11 25 37 40 359 8 15 22 13 15 42 24 353 346 357 358 335 325 322 314 312 319 323 323 318 310 313 316 306 304 308 307 302 304 304 304 306 309 314
263 270 256 263 281 310 334 319 268 289 337 346 339 356 17 29 16 353 340 338 321 305 305 305 304 309 316 317 313 307 304 306 317 313 303 298 296 296 297 296 299 303 304 310
246 235 225 215 215 243 296 312 306 313 297 295 318 353 354 337 311 310 316 325 327 317 307 299 300 308 308 308 304 297 295 293 294 293 295 297 298 297 298 299 300 302 306 311
344 206 173 177 191 205 253 283 295 301 306 308 307 299 294 291 285 290 303 314 310 306 305 303 318 325 310 307 316 292 290 292 296 298 298 302 309 305 300 299 299 301 305 311
29 65 86 81 75 121 250 287 304 307 302 293 290 301 303 299 296 298 299 289 276 271 283 298 305 299 296 296 308 291 289 289 290 293 298 296 297 300 301 301 301 301 304 306
3 38 67 60 1 342 288 268 266 278 292 290 269 271 280 290 292 288 288 294 292 289 294 305 308 295 292 293 302 290 285 285 288 289 290 292 294 297 298 298 298 299 300 302
296 291 284 278 289 302 301 287 268 274 288 292 284 276 280 290 294 291 270 263 278 300 308 290 285 290 297 302 294 288 286 284 284 284 283 285 287 289 291 293 294 296 298 298
268 259 263 266 268 280 299 297 282 274 273 275 276 274 271 274 274 276 289 284 283 297 304 285 293 301 307 312 297 291 290 286 284 281 278 278 278 279 282 287 290 293 296 298
261 268 276 282 287 298 300 299 296 289 278 277 274 270 268 279 285 268 263 289 301 304 301 298 307 309 317 321 298 287 283 280 277 276 276 278 278 278 280 284 288 291 291 293
254 258 271 293 291 278 276 290 302 301 297 293 289 285 276 259 261 281 285 286 295 307 304 304 311 317 324 305 293 285 280 273 269 270 271 278 281 282 281 280 281 285 288 290
267 274 270 264 261 267 273 279 287 292 295 299 302 297 291 283 273 278 285 288 290 301 304 298 299 305 299 290 287 285 280 283 290 287 278 279 279 278 278 280 282 282 283 285
311 304 307 313 306 293 283 276 276 282 280 280 290 294 292 292 291 291 291 293 296 299 298 297 294 291 289 286 286 284 281 279 277 274 274 276 278 278 278 279 281 282 283 285
Height
1461 1458 1459 1459 1459 1459 1460 1461 1464 1460 1459 1456 1455 1455 1454 1454 1454 1455 1456 1456 1457 1457 1458 1459 1460 1461 1462 1462 1463 1463 1464 1464 1464 1465 1465 1465 1466 1466 1466 1466 1466 1466 1465 1465
1463 1459 1458 1459 1456 1456 1456 1457 1458 1458 1457 1454 1454 1455 1455 1455 1455 1455 1456 1457 1457 1458 1458 1459 1460 1461 1461 1461 1462 1462 1462 1462 1462 1463 1463 1463 1463 1463 1463 1463 1463 1463 1462 1461
1466 1462 1459 1462 1456 1454 1454 1453 1454 1455 1455 1453 1454 1454 1454 1455 1455 1455 1456 1456 1457 1457 1458 1458 1459 1460 1460 1460 1460 1461 1461 1461 1461 1461 1461 1461 1461 1461 1460 1460 1460 1459 1458 1458
1470 1467 1470 1458 1452 1451 1452 1451 1451 1451 1452 1452 1453 1453 1454 1454 1454 1454 1455 1456 1456 1457 1457 1458 1459 1459 1459 1459 1459 1459 1459 1459 1459 1459 1459 1458 1458 1458 1458 1457 1456 1456 1455 1454
1472 1471 1464 1456 1452 1452 1453 1453 1451 1452 1452 1452 1452 1453 1454 1454 1454 1454 1455 1456 1456 1457 1457 1457 1458 1458 1458 1458 1458 1458 1457 1457 1457 1457 1456 1456 1456 1455 1455 1454 1453 1452 1451 1450
1474 1471 1466 1457 1452 1450 1452 1455 1452 1451 1452 1452 1452 1456 1456 1454 1454 1454 1454 1455 1455 1456 1456 1456 1457 1457 1457 1456 1456 1456 1456 1455 1455 1455 1454 1454 1453 1452 1452 1451 1450 1449 1447 1446
1473 1472 1463 1456 1452 1450 1459 1458 1453 1451 1451 1451 1451 1453 1454 1453 1453 1453 1453 1454 1454 1454 1454 1455 1455 1455 1455 1455 1455 1455 1454 1454 1453 1453 1452 1452 1451 1450 1449 1448 1446 1445 1444 1442
1470 1471 1466 1454 1453 1455 1455 1453 1452 1452 1451 1451 1451 1452 1452 1452 1452 1451 1452 1452 1452 1452 1453 1453 1454 1454 1453 1453 1453 1453 1452 1452 1451 1450 1450 1449 1448 1447 1446 1444 1443 1441 1440 1438
1463 1462 1456 1454 1454 1454 1453 1453 1452 1452 1452 1452 1452 1452 1452 1451 1451 1451 1451 1451 1451 1451 1451 1452 1452 1452 1451 1451 1451 1450 1450 1449 1448 1448 1447 1446 1445 1443 1442 1441 1440 1438 1436 1434
1459 1456 1455 1454 1453 1453 1453 1453 1452 1452 1452 1452 1452 1451 1451 1450 1450 1450 1450 1449 1450 1450 1450 1450 1450 1450 1450 1449 1449 1448 1447 1446 1446 1445 1444 1443 1442 1440 1439 1438 1437 1435 1433 1431
1457 1455 1454 1453 1453 1453 1453 1452 1452 1452 1452 1451 1451 1450 1450 1449 1449 1449 1449 1449 1448 1448 1448 1448 1448 1448 1448 1447 1446 1446 1445 1444 1443 1442 1441 1439 1438 1437 1436 1435 1434 1433 1431 1429
1456 1453 1454 1453 1452 1452 1452 1452 1451 1451 1450 1450 1450 1449 1448 1448 1448 1447 1447 1447 1447 1447 1447 1446 1446 1446 1445 1444 1444 1443 1442 1441 1440 1439 1438 1436 1435 1434 1433 1432 1431 1429 1428 1426
1452 1451 1451 1451 1451 1451 1451 1450 1450 1450 1449 1448 1448 1447 1447 1446 1446 1446 1446 1446 1445 1445 1445 1444 1444 1443 1442 1442 1441 1440 1439 1438 1437 1436 1435 1433 1432 1430 1428 1428 1427 1425 1423 1421
1450 1450 1450 1450 1450 1450 1449 1449 1448 1448 1447 1447 1446 1446 1445 1445 1445 1445 1444 1444 1443 1443 1443 1442 1441 1440 1440 1439 1438 1437 1436 1435 1434 1433 1432 1430 1429 1427 1426 1424 1422 1420 1419 1418
1449 1449 1449 1449 1448 1448 1448 1447 1446 1446 1446 1445 1445 1444 1443 1443 1443 1442 1442 1442 1441 1441 1440 1439 1438 1438 1437 1436 1435 1434 1433 1432 1431 1430 1429 1427 1426 1424 1423 1421 1419 1417 1415 1414
1448 1447 1447 1447 1447 1446 1446 1445 1444 1444 1444 1443 1443 1442 1442 1441 1441 1440 1440 1439 1439 1438 1437 1436 1435 1434 1434 1433 1431 1431 1430 1429 1428 1426 1425 1424 1423 1421 1419 1418 1416 1414 1412 1410
1446 1446 1445 1445 1445 1444 1444 1443 1443 1442 1441 1441 1441 1440 1440 1439 1438 1438 1437 1437 1436 1435 1434 1433 1432 1431 1430 1430 1428 1427 1426 1425 1424 1423 1422 1421 1419 1417 1416 1414 1413 1411 1409 1408
1445 1444 1444 1443 1443 1442 1442 1441 1441 1440 1439 1439 1439 1438 1437 1437 1436 1435 1435 1434 1433 1432 1432 1431 1429 1428 1427 1426 1425 1424 1423 1422 1421 1419 1418 1417 1415 1414 1413 1411 1409 1408 1406 1405
1443 1442 1442 1441 1441 1441 1440 1439 1439 1438 1438 1437 1436 1436 1435 1434 1434 1433 1432 1431 1430 1429 1428 1427 1426 1425 1424 1423 1422 1421 1420 1419 1417 1416 1415 1414 1412 1411 1409 1408 1406 1405 1403 1401
1441 1440 1440 1440 1439 1439 1438 1438 1437 1436 1436 1435 1434 1434 1433 1432 1431 1430 1429 1428 1428 1426 1425 1424 1423 1422 1421 1420 1419 1418 1416 1415 1414 1413 1412 1410 1409 1407 1406 1405 1403 1401 1400 1398
1440 1439 1438 1438 1437 1437 1437 1436 1435 1434 1434 1433 1432 1431 1430 1429 1429 1428 1426 1425 1425 1424 1422 1421 1420 1419 1418 1417 1415 1414 1413 1412 1411 1410 1408 1407 1406 1404 1403 1402 1400 1399 1397 1395
1438 1437 1437 1436 1435 1435 1435 1434 1433 1432 1432 1431 1430 1429 1428 1427 1426 1425 1424 1423 1422 1421 1419 1418 1417 1416 1415 1414 1412 1411 1410 1409 1407 1406 1405 1404 1402 1401 1400 1398 1397 1396 1394 1392
1436 1436 1435 1434 1434 1433 1433 1432 1431 1430 1429 1428 1427 1426 1425 1424 1423 1422 1421 1420 1419 1417 1416 1415 1414 1413 1412 1410 1409 1407 1406 1405 1404 1403 1402 1400 1399 1398 1397 1395 1394 1392 1391 1389
1434 1434 1433 1432 1432 1431 1430 1429 1429 1428 1427 1426 1425 1424 1423 1421 1420 1420 1418 1417 1416 1414 1413 1412 1411 1409 1408 1406 1405 1404 1403 1402 1400 1399 1398 1397 1396 1395 1393 1392 1391 1389 1388 1386
1432 1432 1431 1430 1429 1429 1428 1427 1426 1425 1424 1423 1422 1421 1420 1419 1418 1416 1415 1414 1412 1411 1409 1408 1407 1405 1404 1403 1402 1400 1399 1398 1397 1396 1395 1394 1393 1391 1390 1389 1387 1386 1384 1383
1430 1429 1429 1428 1427 1427 1426 1425 1423 1422 1421 1420 1419 1418 1417 1416 1415 1413 1412 1411 1409 1408 1406 1405 1403 1402 1400 1399 1398 1397 1396 1394 1393 1392 1391 1390 1389 1388 1387 1385 1384 1382 1381 1379
1428 1428 1427 1426 1425 1424 1423 1422 1421 1420 1419 1418 1416 1415 1414 1413 1412 1410 1409 1407 1406 1404 1403 1401 1400 1398 1397 1395 1394 1393 1392 1391 1390 1389 1388 1387 1386 1384 1383 1382 1380 1379 1378 1376